www.pogodaiklimat.ru

Погода и климат >> Архив погоды >> Казахстан >> Костанай


АРХИВ ПОГОДЫ в Костанае

Время (UTC), дата Ветер
(напр.,м/с)
 
Видим.   Явления Облачность Т
(С)
Тd
(С)
f
(%)
Тe
(С)
Тes
(С)
Комфортность P
(гПа)
Po
(гПа)
Тmin
(С)
Tmax
(С)
R
(мм)
R24
(мм)
S
(см)
09 12.12 Ю 1 50 км 3/0
[Ci fib]
-11.9 -16.3 70 -14 -13 по сезону 1031.9 1011.7
12 12.12 ЮВ 1 20 км 3/0
[Ac trans Ci fib]
-14.2 -17.7 75 -17 -17 по сезону 1032.0 1011.6
15 12.12 ЮВ 1 н/о {снег} 9/0
[Ac trans]
-12.4 -15.9 75 -15 -15 по сезону 1032.1 1011.8 -11.1
18 12.12 ЮВ 1 н/о туман 9/0
[Ac trans]
-11.1 -13.1 85 -13 -13 по сезону 1031.7 1011.5 -11.1 0.0
21 12.12 ЮВ 1 н/о туман 9/0
[Ac trans]
-13.5 -14.8 90 -16 -16 по сезону 1031.6 1011.3
00 13.12 ЮВ 1 н/о туман 9/0
[Ac trans]
-13.8 -14.4 95 -16 -16 по сезону 1031.0 1010.7
03 13.12 ЮВ 1 н/о дымка {туман} 6/0
[Ci]
-13.5 -14.8 90 -16 -16 по сезону 1030.4 1010.1 8
06 13.12 Ю 1 4000 м дымка {туман} 9/0
[Ac trans Ci fib]
-11.2 -13.2 85 -13 -13 по сезону 1030.6 1010.4 -14.4
09 13.12 Ю 2 50 км 8/0
[Ac trans]
-6.8 -11.0 72 -11 -11 по сезону 1030.2 1010.3
12 13.12 Ю 2 20 км 6/0
[Ac trans]
-8.5 -13.8 66 -13 -13 по сезону 1030.2 1010.2
15 13.12 Ю 2 н/о ясно -9.6 -14.2 69 -14 -14 по сезону 1030.4 1010.4 -5.8
18 13.12 Ю 1 н/о ясно -12.5 -16.8 70 -15 -15 по сезону 1031.1 1010.8 -5.8
21 13.12 Ю 1 н/о ясно -13.7 -18.0 70 -16 -16 по сезону 1031.1 1010.8
00 14.12 Ю 1 н/о 8/0
[Ac trans]
-14.3 -17.8 75 -17 -17 по сезону 1031.8 1011.3
03 14.12 Ю 1 н/о 9/0
[Ac trans]
-12.4 -15.9 75 -15 -15 по сезону 1030.9 1010.6 8
06 14.12 Ю 1 20 км 9/0
[Ac trans]
-10.9 -15.3 70 -13 -13 по сезону 1031.5 1011.3 -14.3
09 14.12 СЗ 1 50 км 4/0
[Ac lent Ci fib]
-8.7 -14.1 65 -11 -10 по сезону 1031.2 1011.2
12 14.12 С 1 20 км 4/0
[Ci fib]
-12.4 -16.7 70 -15 -15 по сезону 1031.5 1011.2
15 14.12 С 1 н/о 3/0
[Ac trans]
-14.2 -17.7 75 -17 -17 по сезону 1031.1 1010.7 -8.7
18 14.12 С 1 н/о 3/0
[Ac trans]
-16.7 -19.3 80 -19 -19 по сезону 1030.8 1010.1 -8.7
21 14.12 С 1 н/о 4/0
[Ac trans]
-17.3 -19.2 85 -20 -20 по сезону 1030.5 1009.8
00 15.12 С 1 н/о 3/0
[Ac trans]
-16.5 -18.4 85 -19 -19 по сезону 1029.3 1008.6
03 15.12 С 1 н/о 8/0
[Ac trans]
-15.3 -17.2 85 -18 -18 по сезону 1028.3 1007.8 7
06 15.12 С 1 50 км 10/0
[As op]
-13.8 -16.5 80 -16 -16 по сезону 1028.0 1007.7 -17.3
09 15.12 С 1 50 км 10/0
[As op]
-11.3 -14.1 80 -14 -13 по сезону 1026.9 1006.8
12 15.12 С 1 20 км 10/0
[As op]
-10.4 -13.2 80 -13 -13 по сезону 1026.9 1006.8
15 15.12 З 1 н/о слабый снег 10/0
[As op]
-10.1 -12.9 80 -12 -12 по сезону 1026.6 1006.7 -10.1
18 15.12 штиль 0 н/о слабый снег 10/0
[As op]
-9.1 -11.1 85 -10 -10 тепло 1026.4 1006.5 -10.1 0.0
21 15.12 штиль 0 н/о {снег} 10/0
[Ac As]
-7.7 -9.9 84 -8 -8 тепло 1026.3 1006.5
00 16.12 Ю 1 н/о {снег} 10/0
[Ac As]
-6.9 -9.4 82 -9 -9 тепло 1026.4 1006.6
03 16.12 Ю 1 н/о 9/0
[Ac trans]
-6.2 -8.9 81 -9 -9 тепло 1026.2 1006.6 8
06 16.12 ЮЗ 1 4000 м слабый снег 10/0
[As op]
-4.9 -7.0 85 -7 -7 тепло 1027.6 1007.9 -10.1 0.3
09 16.12 З 2 4000 м слабый снег 10/0
[As op]
-4.9 -7.0 85 -9 -9 тепло 1028.1 1008.4
12 16.12 З 2 20 км {снег} 10/4 600 м
[Sc As op]
-7.1 -10.0 80 -11 -11 по сезону 1029.4 1009.5
15 16.12 штиль 0 н/о слабый снег 10/0
[As op]
-9.5 -12.1 81 -10 -10 тепло 1030.7 1010.7 -4.4
18 16.12 штиль 0 н/о {снег} 9/0
[Ac trans]
-9.8 -12.4 81 -10 -10 тепло 1031.0 1011.0 -4.4 0.3
21 16.12 штиль 0 н/о 8/0
[Ac trans]
-11.8 -14.5 80 -12 -12 по сезону 1031.9 1011.7
00 17.12 штиль 0 н/о 10/0
[Ac As]
-9.0 -11.5 82 -10 -10 тепло 1031.9 1011.9
03 17.12 штиль 0 н/о слабый снег 10/0
[As op]
-8.6 -11.0 83 -9 -9 тепло 1032.0 1012.0 9
06 17.12 З 1 4000 м слабый снег 10/0
[As op]
-7.5 -10.1 82 -10 -10 тепло 1032.9 1012.9 -12.5 0.3
09 17.12 З 1 20 км {снег} 9/0
[Ac trans]
-7.2 -9.7 82 -10 -9 тепло 1033.1 1013.1
12 17.12 З 1 20 км {снег} 9/0
[Ac trans]
-8.0 -10.2 84 -10 -10 тепло 1033.5 1013.5
15 17.12 штиль 0 н/о 10/0
[Ac As]
-10.1 -12.1 85 -10 -10 тепло 1034.2 1014.1 -6.1
18 17.12 Ю 1 н/о слабый снег 10/0
[As op]
-9.3 -11.4 85 -12 -12 по сезону 1034.4 1014.3 -6.1 0.2
21 17.12 штиль 0 н/о слабый снег 10/0
[As op]
-11.5 -13.5 85 -12 -12 по сезону 1035.2 1014.9
00 18.12 Ю 1 н/о {снег} 9/0
[Ac trans]
-10.1 -12.1 85 -12 -12 тепло 1034.4 1014.3
03 18.12 Ю 1 н/о дымка 9/0
[Ac lent]
-9.4 -11.0 88 -12 -12 по сезону 1034.2 1014.1 9
06 18.12 ЮЗ 2 4000 м дымка 8/0
[Ac As]
-8.1 -9.9 87 -13 -12 по сезону 1034.1 1014.1 -12.3 0.0
09 18.12 З 2 4000 м дымка 8/0
[Ac As]
-7.9 -9.7 87 -12 -12 по сезону 1033.5 1013.5
12 18.12 З 2 4000 м дымка 10/0
[Ac As]
-9.6 -11.2 88 -14 -14 по сезону 1033.1 1013.0
15 18.12 З 1 н/о дымка 4/0
[Ci fib]
-11.9 -13.2 90 -14 -14 по сезону 1032.6 1012.4 -7.9
18 18.12 З 1 н/о дымка ясно -14.9 -16.2 90 -17 -17 по сезону 1031.8 1011.3 -7.9
21 18.12 З 1 н/о дымка ясно -19.0 -20.2 90 -22 -22 по сезону 1031.9 1011.1
00 19.12 З 1 н/о дымка ясно -19.9 -21.1 90 -23 -23 прохладно 1031.9 1011.1
03 19.12 З 1 н/о дымка ясно -19.3 -20.5 90 -22 -22 по сезону 1032.1 1011.3 9

 

Местоположение метеостанции Костанай (Костанайская область, Казахстан): широта 53.22 долгота 63.62 высота над уровнем моря 156 м.

В архиве по умолчанию представлена погода в Костанае за последнюю неделю. Архивные данные за месяц целиком и за предыдущие месяцы, начиная с января 2011 года, Вы можете получить, выбрав интересующий диапазон дат из раскрывающегося списка и нажав кнопку "Ввод!".


*Определитесь, кто Вы:
робот инопланетянин человек

Внимание! Время в таблицах - всемирное. Для получения местного времени необходимо прибавить поправку, которая в Костанае равна 6 ч.

Смотрите также архив погоды в соседних городах и на ближайших метеорологических станциях:

Погода в Костанае 2 (Костанайская область, Казахстан) (3 км)
Погода в Рудном (Костанайская область, Казахстан) (43 км)
Погода в Тоболе (Костанайская область, Казахстан) (91 км)
Погода в Кусмурыне (Костанайская область, Казахстан) (109 км)
Погода в Карабалыке (Костанайская область, Казахстан) (118 км)
Погода в Сарыколе (Костанайская область, Казахстан) (129 км)
Погода в Михайловке (Костанайская область, Казахстан) (136 км)
Погода в Диевской (Костанайская область, Казахстан) (136 км)
Погода в Карасу (Костанайская область, Казахстан) (140 км)
Погода в Целинном (Курганская область, Россия) (142 км)

Пояснения к столбцам:

Ветер - указаны скорость ветра в м/с - средняя за 10 мин, порывы в срок и между сроками (в фигурных скобках) и направление, откуда дует ветер: С - северный, СВ - северо-восточный, В - восточный, ЮВ - юго-восточный, Ю - южный, ЮЗ - юго-западный, З - западный, СЗ - северо-западный.
Видимость - горизонтальная дальность видимости в метрах или километрах. При видимости от 1 до 10 км при отсутствии осадков обычно наблюдается дымка, при ухудшении видимости до 1 км и менее - туман. В сухую погоду видимость может ухудшаться дымом, пылью или мглою.
Явления - указаны атмосферные явления, наблюдавшиеся в срок или в последний час перед сроком; фигурными скобками обозначены явления, наблюдавшиеся между сроками (за 1-3 часа до срока); квадратными скобками обозначены град или гололедные отложения с указанием их диаметра в мм.
Облачность - указаны через наклонную черту общая и нижняя облачность в баллах и высота нижней границы облаков в метрах; квадратными скобками обозначены формы облаков: Ci - перистые, Cs - перисто-слоистые, Cc - перисто-кучевые, Ac - высококучевые, As - высокослоистые, Sc - слоисто-кучевые, Ns - слоисто-дождевые, Cu - кучевые, Cb - кучево-дождевые. Подробнее классификацию облаков см. в Атласе облаков (PDF).
T - Температура воздуха - температура, измеренная на высоте 2 м над землей.
Td - Температура точки росы - температура, при понижении до которой содержащийся в воздухе водяной пар достигнет насыщения.
f - Относительная влажность воздуха - влажноcть воздуха, измеренная на высоте 2 м над землей.
Te - Эффективная температура - температура, которую ощущает одетый по сезону человек в тени. Характеристика душности погоды. При расчете учитывается влияние влажности воздуха и скорости ветра на теплоощущения человека.
Tes - Эффективная температура на солнце - температура, которую ощущает человек, с поправкой на солнечный нагрев. Характеристика знойности погоды. Зависит от высоты солнца над горизонтом, облачности и скорости ветра. Ночью, в пасмурную погоду, а также при ветре 12 м/с и более поправка равна нулю.
P - Атмосферное давление - приведенное к уровню моря атмосферное давление.
Po - Атмосферное давление - измеренное на уровне метеостанции атмосферное давление.
Tmin - Минимальная температура - минимум температуры воздуха на высоте 2 м над землей.
Tmax - Максимальная температура - максимум температуры воздуха на высоте 2 м над землей.
R - Количество осадков - Количество выпавших осадков за период времени, мм. При наведении курсора мыши на число - период времени, за который выпало указанное количество осадков.
R24 - Количество осадков - Количество выпавших осадков за 24 часа, мм.
S - Снежный покров - Высота снежного покрова, см. При наведении курсора мыши на число - состояние снежного покрова и степень покрытия местности в баллах.